Regional Weather Roundup
Issued by NWS Goodland, KS

Home | Current Version | Previous Version | Text Only | Print | Product List | Glossary Off
Versions: 1 2 3 4 5 6 7 8 9 10 11 12 13 14 15 16 17 18 19 20 21 22 23 24 25 26 27 28 29 30 31 32 33 34 35 36 37 38 39 40 41 42 43 44 45 46 47 48 49 50

549
ASUS43 KGLD 221059
RWRGLD

GOODLAND FORECAST AREA HOURLY WEATHER ROUNDUP
NATIONAL WEATHER SERVICE GOODLAND KS
500 AM MDT FRI MAY 22 2015

...OFFICIAL OBSERVATIONS...

CITY           SKY/WX    TMP DP  RH WIND       PRES   REMARKS
GOODLAND KS    RAIN      47  46  97 SE15      30.10F
HILL CITY KS   LGT RAIN  49  46  90 SE3       30.17R FOG
IMPERIAL NEB   CLOUDY    48  43  82 SE10      30.11F
MCCOOK NEB     CLOUDY    48  44  86 SE5       30.14F
AKRON CO       RAIN      45  44  97 SE16      30.05F FOG
BURLINGTON CO  LGT RAIN  47  45  93 SE18      30.08R
LIMON CO       LGT RAIN  43  42  97 SE17      30.04F
$$

...UNOFFICIAL OBSERVATIONS...

CITY           SKY/WX    TMP DP  RH WIND       PRES   REMARKS
GOVE KS          N/A     50  32  50 MISG        N/A
LENORA KS        N/A     48  32  54 MISG        N/A
SHARON SPRINGS   N/A     47  46  95 MISG        N/A
TRENTON NEB      N/A     48  32  54 SE10        N/A
KIT CARSON CO    N/A     46  44  91 MISG        N/A
YUMA CO          N/A     47  44  91 E12         N/A
$$



USA.gov is the U.S. government's official web portal to all federal, state and local government web resources and services.